Weather History for Chicago, IL

Change the Weather History Date:

Thursday, January 23, 2014

  Actual Average Record
Temperature  
Mean Temperature 3 °F 24 °F  
Max Temperature 10 °F 31 °F 65 °F (1909)
Min Temperature -5 °F 16 °F -18 °F (1963)
Degree Days  
Heating Degree Days 62 41  
Month to date heating degree days 1109 951  
Since 1 July heating degree days 3675 3362  
Cooling Degree Days 0 0  
Month to date cooling degree days 0 0  
Year to date cooling degree days 0 0  
Moisture  
Dew Point -10 °F    
Average Humidity 57    
Maximum Humidity 62    
Minimum Humidity 51    
Precipitation  
Precipitation T in 0.05 in 0.89 in (1999)
Month to date precipitation 2.61 1.33  
Year to date precipitation 2.61 1.33  
Snow  
Snow T in 0.40 in 4.50 in (1897)
Month to date snowfall 30.3 7.9  
Since 1 July snowfall 45.4 17.6  
Snow Depth 5.00 in    
Sea Level Pressure  
Sea Level Pressure 30.48 in    
Wind  
Wind Speed 14 mph (WNW)    
Max Wind Speed 21 mph    
Max Gust Speed 27 mph    
Visibility 10 miles    
Events      
T = Trace of Precipitation, MM = Missing Value Source: NWS Daily Summary

Daily Weather History Graph

Daily Weather History Graph

Search for Another Location

Airport:

Trip Planner

Search our weather history database for the weather conditions in past years. The results will help you decide how hot, cold, wet, or windy it might be!

Date:

Astronomy

Jan. 23, 2014 Rise Set
Actual Time 7:12 AM CST 4:55 PM CST
Civil Twilight 6:42 AM CST 5:25 PM CST
Nautical Twilight 6:08 AM CST 5:59 PM CST
Astronomical Twilight 5:35 AM CST 6:32 PM CST
Moon No Moon Rise 10:39 AM CST (1/23)
Length of Visible Light 10h 43m
Length of Day
9h 42m
Waning Gibbous, 55% of the Moon is Illuminated
Jan 23
Waning Gibbous
Jan 23
Last Quarter
Jan 30
New
Feb 6
First Quarter
Feb 14
Full

Hourly Weather History & Observations

Time (CST) Temp. Windchill Dew Point Humidity Pressure Visibility Wind Dir Wind Speed Gust Speed Precip Events Conditions
12:51 AM -0.9 °F -21.9 °F -13.0 °F 57% 30.22 in 10.0 mi WNW 17.3 mph - N/A   Clear
1:51 AM -0.9 °F -21.9 °F -14.1 °F 54% 30.25 in 10.0 mi WNW 17.3 mph 24.2 mph N/A   Partly Cloudy
2:51 AM -0.9 °F -20.6 °F -14.1 °F 54% 30.27 in 10.0 mi WNW 15.0 mph 23.0 mph N/A   Clear
3:51 AM -2.0 °F -21.9 °F -14.1 °F 57% 30.30 in 10.0 mi WNW 15.0 mph - N/A   Clear
4:51 AM -2.0 °F -21.9 °F -14.1 °F 57% 30.32 in 10.0 mi WNW 15.0 mph - N/A   Clear
5:51 AM -2.0 °F -21.9 °F -13.0 °F 60% 30.37 in 10.0 mi WNW 15.0 mph 23.0 mph N/A   Scattered Clouds
6:51 AM -2.0 °F -22.6 °F -13.0 °F 60% 30.40 in 10.0 mi WNW 16.1 mph - N/A   Partly Cloudy
7:51 AM -2.0 °F -22.6 °F -13.0 °F 60% 30.43 in 10.0 mi WNW 16.1 mph - N/A   Partly Cloudy
8:51 AM 1.0 °F -18.7 °F -11.0 °F 57% 30.46 in 10.0 mi NW 16.1 mph 23.0 mph 0.00 in   Scattered Clouds
9:51 AM 3.9 °F -14.3 °F -8.0 °F 58% 30.49 in 10.0 mi NW 15.0 mph - N/A   Partly Cloudy
10:51 AM 6.1 °F -12.2 °F -6.0 °F 58% 30.51 in 10.0 mi WNW 16.1 mph - 0.00 in   Mostly Cloudy
11:51 AM 8.1 °F -9.0 °F -5.1 °F 55% 30.51 in 10.0 mi WNW 15.0 mph - N/A   Scattered Clouds
12:51 PM 9.0 °F -7.3 °F -5.1 °F 53% 30.52 in 10.0 mi West 13.8 mph - N/A   Partly Cloudy
1:29 PM 9.0 °F -8.5 °F -5.1 °F 53% 30.47 in 10.0 mi WNW 16.1 mph - N/A   Partly Cloudy
1:51 PM 9.0 °F -7.9 °F -5.1 °F 53% 30.53 in 10.0 mi NW 15.0 mph - N/A   Partly Cloudy
2:51 PM 8.1 °F -9.6 °F -6.0 °F 53% 30.55 in 10.0 mi WNW 16.1 mph - N/A   Partly Cloudy
3:51 PM 7.0 °F -11.0 °F -7.1 °F 53% 30.58 in 10.0 mi West 16.1 mph - N/A   Partly Cloudy
4:51 PM 6.1 °F -10.2 °F -7.1 °F 55% 30.59 in 10.0 mi WNW 12.7 mph - N/A   Partly Cloudy
5:51 PM 5.0 °F -10.0 °F -8.0 °F 55% 30.60 in 10.0 mi WNW 10.4 mph - N/A   Partly Cloudy
6:51 PM 1.9 °F -15.5 °F -9.0 °F 60% 30.62 in 10.0 mi West 12.7 mph - N/A   Partly Cloudy
7:51 PM 1.0 °F -16.6 °F -11.0 °F 57% 30.61 in 10.0 mi West 12.7 mph - N/A   Clear
8:51 PM -0.0 °F -16.3 °F -11.9 °F 57% 30.60 in 10.0 mi West 10.4 mph - N/A   Clear
9:51 PM -0.9 °F -19.1 °F -13.0 °F 57% 30.59 in 10.0 mi West 12.7 mph - N/A   Clear
10:51 PM -2.9 °F -21.6 °F -14.1 °F 59% 30.58 in 10.0 mi West 12.7 mph - N/A   Clear
11:51 PM -5.1 °F -22.5 °F -15.0 °F 62% 30.56 in 10.0 mi West 10.4 mph - N/A   Clear